Time,TemperatureF,DewpointF,PressureIn,WindDirection,WindDirectionDegrees,WindSpeedMPH,WindSpeedGustMPH,Humidity,HourlyPrecipIn,Conditions,Clouds,dailyrainin,SolarRadiationWatts/m^2,SoftwareType,DateUTC
2013-04-27 00:01:00,41.9,20.5,30.30,East,96,7.0,13.0,42,0.00,,,0.00,32767.00,ALWS 1.0-beta,2013-04-27 06:01:00,
2013-04-27 00:06:00,41.9,19.9,30.30,East,86,4.0,13.0,41,0.00,,,0.00,32767.00,ALWS 1.0-beta,2013-04-27 06:06:00,
2013-04-27 00:11:00,41.7,20.3,30.30,East,98,6.0,15.0,42,0.00,,,0.00,32767.00,ALWS 1.0-beta,2013-04-27 06:11:00,
2013-04-27 00:16:00,40.9,20.7,30.30,ESE,102,12.0,12.0,44,0.00,,,0.00,32767.00,ALWS 1.0-beta,2013-04-27 06:16:00,
2013-04-27 00:21:00,40.5,20.3,30.30,East,101,7.0,15.0,44,0.00,,,0.00,32767.00,ALWS 1.0-beta,2013-04-27 06:21:00,
2013-04-27 00:26:00,40.1,20.5,30.30,ESE,105,14.0,14.0,45,0.00,,,0.00,32767.00,ALWS 1.0-beta,2013-04-27 06:26:00,
2013-04-27 00:31:00,39.9,20.8,30.30,ESE,109,10.0,13.0,46,0.00,,,0.00,32767.00,ALWS 1.0-beta,2013-04-27 06:31:00,
2013-04-27 00:36:00,39.7,20.6,30.31,ESE,114,10.0,14.0,46,0.00,,,0.00,32767.00,ALWS 1.0-beta,2013-04-27 06:36:00,
2013-04-27 00:41:00,39.5,20.5,30.31,East,93,13.0,16.0,46,0.00,,,0.00,32767.00,ALWS 1.0-beta,2013-04-27 06:41:00,
2013-04-27 00:46:00,39.8,20.2,30.31,ESE,102,14.0,20.0,45,0.00,,,0.00,32767.00,ALWS 1.0-beta,2013-04-27 06:46:00,
2013-04-27 00:51:00,39.6,20.5,30.31,ESE,107,13.0,18.0,46,0.00,,,0.00,32767.00,ALWS 1.0-beta,2013-04-27 06:51:00,
2013-04-27 00:56:00,39.1,20.6,30.31,ESE,108,12.0,16.0,47,0.00,,,0.00,32767.00,ALWS 1.0-beta,2013-04-27 06:56:00,
2013-04-27 01:01:00,39.0,20.5,30.31,ESE,109,7.0,15.0,47,0.00,,,0.00,32767.00,ALWS 1.0-beta,2013-04-27 07:01:00,
2013-04-27 01:06:00,38.8,20.3,30.31,ESE,105,11.0,16.0,47,0.00,,,0.00,32767.00,ALWS 1.0-beta,2013-04-27 07:06:00,
2013-04-27 01:11:00,39.0,20.0,30.31,ESE,113,7.0,16.0,46,0.00,,,0.00,32767.00,ALWS 1.0-beta,2013-04-27 07:11:00,
2013-04-27 01:16:00,38.9,20.4,30.31,ESE,109,6.0,14.0,47,0.00,,,0.00,32767.00,ALWS 1.0-beta,2013-04-27 07:16:00,
2013-04-27 01:21:00,39.3,19.8,30.31,East,94,9.0,16.0,45,0.00,,,0.00,32767.00,ALWS 1.0-beta,2013-04-27 07:21:00,
2013-04-27 01:26:00,39.4,19.8,30.31,ESE,107,10.0,17.0,45,0.00,,,0.00,32767.00,ALWS 1.0-beta,2013-04-27 07:26:00,
2013-04-27 01:31:00,38.8,19.8,30.31,ESE,121,11.0,16.0,46,0.00,,,0.00,32767.00,ALWS 1.0-beta,2013-04-27 07:31:00,
2013-04-27 01:36:00,38.4,19.9,30.31,East,97,12.0,16.0,47,0.00,,,0.00,32767.00,ALWS 1.0-beta,2013-04-27 07:36:00,
2013-04-27 01:41:00,38.3,19.9,30.31,ESE,109,11.0,14.0,47,0.00,,,0.00,32767.00,ALWS 1.0-beta,2013-04-27 07:41:00,
2013-04-27 01:46:00,38.5,19.5,30.31,East,98,13.0,17.0,46,0.00,,,0.00,32767.00,ALWS 1.0-beta,2013-04-27 07:46:00,
2013-04-27 01:51:00,38.9,19.4,30.31,East,100,12.0,21.0,45,0.00,,,0.00,32767.00,ALWS 1.0-beta,2013-04-27 07:51:00,
2013-04-27 01:56:00,38.6,19.1,30.31,East,88,20.0,20.0,45,0.00,,,0.00,32767.00,ALWS 1.0-beta,2013-04-27 07:56:00,
2013-04-27 02:01:00,38.6,19.1,30.30,ESE,103,13.0,19.0,45,0.00,,,0.00,32767.00,ALWS 1.0-beta,2013-04-27 08:01:00,
2013-04-27 02:06:00,38.4,18.9,30.30,ESE,109,12.0,16.0,45,0.00,,,0.00,32767.00,ALWS 1.0-beta,2013-04-27 08:06:00,
2013-04-27 02:11:00,38.3,18.8,30.31,East,96,9.0,16.0,45,0.00,,,0.00,32767.00,ALWS 1.0-beta,2013-04-27 08:11:00,
2013-04-27 02:16:00,38.1,19.2,30.30,ESE,112,11.0,15.0,46,0.00,,,0.00,32767.00,ALWS 1.0-beta,2013-04-27 08:16:00,
2013-04-27 02:21:00,37.4,19.0,30.30,ESE,118,7.0,12.0,47,0.00,,,0.00,32767.00,ALWS 1.0-beta,2013-04-27 08:21:00,
2013-04-27 02:26:00,37.4,18.5,30.30,ESE,106,10.0,16.0,46,0.00,,,0.00,32767.00,ALWS 1.0-beta,2013-04-27 08:26:00,
2013-04-27 02:31:00,38.0,18.6,30.30,ESE,109,14.0,18.0,45,0.00,,,0.00,32767.00,ALWS 1.0-beta,2013-04-27 08:31:00,
2013-04-27 02:36:00,38.2,18.2,30.30,East,101,13.0,19.0,44,0.00,,,0.00,32767.00,ALWS 1.0-beta,2013-04-27 08:36:00,
2013-04-27 02:41:00,37.8,18.4,30.29,ESE,122,11.0,14.0,45,0.00,,,0.00,32767.00,ALWS 1.0-beta,2013-04-27 08:41:00,
2013-04-27 02:46:00,37.2,18.3,30.30,East,101,9.0,12.0,46,0.00,,,0.00,32767.00,ALWS 1.0-beta,2013-04-27 08:46:00,
2013-04-27 02:51:00,37.6,18.2,30.29,East,101,7.0,16.0,45,0.00,,,0.00,32767.00,ALWS 1.0-beta,2013-04-27 08:51:00,
2013-04-27 02:56:00,37.3,17.9,30.29,ESE,103,12.0,16.0,45,0.00,,,0.00,32767.00,ALWS 1.0-beta,2013-04-27 08:56:00,
2013-04-27 03:01:00,37.4,18.0,30.29,ESE,109,15.0,16.0,45,0.00,,,0.00,32767.00,ALWS 1.0-beta,2013-04-27 09:01:00,
2013-04-27 03:06:00,37.1,17.7,30.29,East,98,15.0,17.0,45,0.00,,,0.00,32767.00,ALWS 1.0-beta,2013-04-27 09:06:00,
2013-04-27 03:11:00,37.3,17.9,30.29,East,83,12.0,16.0,45,0.00,,,0.00,32767.00,ALWS 1.0-beta,2013-04-27 09:11:00,
2013-04-27 03:16:00,37.3,17.9,30.29,East,94,11.0,15.0,45,0.00,,,0.00,32767.00,ALWS 1.0-beta,2013-04-27 09:16:00,
2013-04-27 03:21:00,37.4,17.5,30.28,East,86,11.0,17.0,44,0.00,,,0.00,32767.00,ALWS 1.0-beta,2013-04-27 09:21:00,
2013-04-27 03:26:00,37.9,17.4,30.28,East,98,13.0,17.0,43,0.00,,,0.00,32767.00,ALWS 1.0-beta,2013-04-27 09:26:00,
2013-04-27 03:31:00,37.8,17.3,30.28,ESE,107,12.0,16.0,43,0.00,,,0.00,32767.00,ALWS 1.0-beta,2013-04-27 09:31:00,
2013-04-27 03:36:00,37.8,17.3,30.28,East,95,13.0,17.0,43,0.00,,,0.00,32767.00,ALWS 1.0-beta,2013-04-27 09:36:00,
2013-04-27 03:41:00,37.9,16.9,30.28,East,87,12.0,16.0,42,0.00,,,0.00,32767.00,ALWS 1.0-beta,2013-04-27 09:41:00,
2013-04-27 03:46:00,38.1,17.0,30.28,East,86,18.0,18.0,42,0.00,,,0.00,32767.00,ALWS 1.0-beta,2013-04-27 09:46:00,
2013-04-27 03:51:00,37.8,17.3,30.28,East,83,13.0,16.0,43,0.00,,,0.00,32767.00,ALWS 1.0-beta,2013-04-27 09:51:00,
2013-04-27 03:56:00,37.8,17.3,30.28,East,98,18.0,18.0,43,0.00,,,0.00,32767.00,ALWS 1.0-beta,2013-04-27 09:56:00,
2013-04-27 04:01:00,37.5,17.0,30.28,ESE,122,11.0,15.0,43,0.00,,,0.00,32767.00,ALWS 1.0-beta,2013-04-27 10:01:00,
2013-04-27 04:06:00,37.1,17.2,30.28,ESE,103,11.0,17.0,44,0.00,,,0.00,32767.00,ALWS 1.0-beta,2013-04-27 10:06:00,
2013-04-27 04:11:00,37.1,17.2,30.28,ESE,106,13.0,18.0,44,0.00,,,0.00,32767.00,ALWS 1.0-beta,2013-04-27 10:11:00,
2013-04-27 04:16:00,37.2,17.3,30.28,ESE,108,12.0,18.0,44,0.00,,,0.00,32767.00,ALWS 1.0-beta,2013-04-27 10:16:00,
2013-04-27 04:21:00,37.0,17.1,30.28,ESE,103,16.0,18.0,44,0.00,,,0.00,32767.00,ALWS 1.0-beta,2013-04-27 10:21:00,
2013-04-27 04:26:00,36.9,17.0,30.29,SE,126,9.0,16.0,44,0.00,,,0.00,32767.00,ALWS 1.0-beta,2013-04-27 10:26:00,
2013-04-27 04:31:00,36.0,17.2,30.29,SE,132,5.0,12.0,46,0.00,,,0.00,32767.00,ALWS 1.0-beta,2013-04-27 10:31:00,
2013-04-27 04:36:00,35.5,17.3,30.29,ESE,122,13.0,13.0,47,0.00,,,0.00,32767.00,ALWS 1.0-beta,2013-04-27 10:36:00,
2013-04-27 04:41:00,35.5,17.3,30.28,ESE,119,9.0,11.0,47,0.00,,,0.00,32767.00,ALWS 1.0-beta,2013-04-27 10:41:00,
2013-04-27 04:46:00,35.6,17.4,30.28,ESE,123,11.0,13.0,47,0.00,,,0.00,32767.00,ALWS 1.0-beta,2013-04-27 10:46:00,
2013-04-27 04:51:00,35.7,17.5,30.28,ESE,122,7.0,12.0,47,0.00,,,0.00,32767.00,ALWS 1.0-beta,2013-04-27 10:51:00,
2013-04-27 04:56:00,35.5,17.8,30.29,ESE,103,11.0,11.0,48,0.00,,,0.00,32767.00,ALWS 1.0-beta,2013-04-27 10:56:00,
2013-04-27 05:01:00,36.0,17.7,30.29,ESE,113,9.0,14.0,47,0.00,,,0.00,32767.00,ALWS 1.0-beta,2013-04-27 11:01:00,
2013-04-27 05:06:00,36.0,17.7,30.28,ESE,118,8.0,15.0,47,0.00,,,0.00,32767.00,ALWS 1.0-beta,2013-04-27 11:06:00,
2013-04-27 05:11:00,35.9,17.6,30.29,ESE,121,9.0,15.0,47,0.00,,,0.00,32767.00,ALWS 1.0-beta,2013-04-27 11:11:00,
2013-04-27 05:16:00,35.5,17.8,30.29,ESE,109,9.0,11.0,48,0.00,,,0.00,32767.00,ALWS 1.0-beta,2013-04-27 11:16:00,
2013-04-27 05:21:00,36.2,17.9,30.29,ESE,105,8.0,17.0,47,0.00,,,0.00,32767.00,ALWS 1.0-beta,2013-04-27 11:21:00,
2013-04-27 05:26:00,36.4,18.1,30.29,ESE,109,5.0,13.0,47,0.00,,,0.00,32767.00,ALWS 1.0-beta,2013-04-27 11:26:00,
2013-04-27 05:31:00,36.1,17.8,30.29,SE,125,8.0,13.0,47,0.00,,,0.00,32767.00,ALWS 1.0-beta,2013-04-27 11:31:00,
2013-04-27 05:36:00,36.1,17.8,30.29,ESE,114,6.0,12.0,47,0.00,,,0.00,32767.00,ALWS 1.0-beta,2013-04-27 11:36:00,
2013-04-27 05:41:00,35.7,18.0,30.29,ESE,123,11.0,11.0,48,0.00,,,0.00,32767.00,ALWS 1.0-beta,2013-04-27 11:41:00,
2013-04-27 05:46:00,35.2,18.0,30.29,ESE,119,6.0,9.0,49,0.00,,,0.00,32767.00,ALWS 1.0-beta,2013-04-27 11:46:00,
2013-04-27 05:51:00,35.5,18.2,30.29,ESE,118,6.0,13.0,49,0.00,,,0.00,32767.00,ALWS 1.0-beta,2013-04-27 11:51:00,
2013-04-27 05:56:00,35.7,18.4,30.29,ESE,110,7.0,9.0,49,0.00,,,0.00,32767.00,ALWS 1.0-beta,2013-04-27 11:56:00,
2013-04-27 06:01:00,35.7,18.4,30.29,ESE,119,5.0,9.0,49,0.00,,,0.00,32767.00,ALWS 1.0-beta,2013-04-27 12:01:00,
2013-04-27 06:06:00,35.6,18.3,30.29,East,101,6.0,12.0,49,0.00,,,0.00,32767.00,ALWS 1.0-beta,2013-04-27 12:06:00,
2013-04-27 06:11:00,35.5,18.2,30.29,East,90,9.0,10.0,49,0.00,,,0.00,32767.00,ALWS 1.0-beta,2013-04-27 12:11:00,
2013-04-27 06:16:00,35.5,18.2,30.29,ESE,121,10.0,11.0,49,0.00,,,0.00,32767.00,ALWS 1.0-beta,2013-04-27 12:16:00,
2013-04-27 06:21:00,35.6,18.3,30.29,ESE,103,10.0,12.0,49,0.00,,,0.00,32767.00,ALWS 1.0-beta,2013-04-27 12:21:00,
2013-04-27 06:26:00,35.7,18.9,30.30,ESE,123,7.0,12.0,50,0.00,,,0.00,32767.00,ALWS 1.0-beta,2013-04-27 12:26:00,
2013-04-27 06:31:00,35.4,18.6,30.30,SE,127,6.0,10.0,50,0.00,,,0.00,32767.00,ALWS 1.0-beta,2013-04-27 12:31:00,
2013-04-27 06:36:00,35.2,18.4,30.30,ESE,121,10.0,10.0,50,0.00,,,0.00,32767.00,ALWS 1.0-beta,2013-04-27 12:36:00,
2013-04-27 06:41:00,35.3,18.5,30.30,SE,142,4.0,10.0,50,0.00,,,0.00,32767.00,ALWS 1.0-beta,2013-04-27 12:41:00,
2013-04-27 06:46:00,35.2,18.9,30.30,SE,129,5.0,10.0,51,0.00,,,0.00,32767.00,ALWS 1.0-beta,2013-04-27 12:46:00,
2013-04-27 06:51:00,35.3,19.0,30.30,SE,136,6.0,11.0,51,0.00,,,0.00,32767.00,ALWS 1.0-beta,2013-04-27 12:51:00,
2013-04-27 06:56:00,35.4,19.1,30.30,SE,128,7.0,10.0,51,0.00,,,0.00,32767.00,ALWS 1.0-beta,2013-04-27 12:56:00,
2013-04-27 07:01:00,35.4,19.1,30.30,SE,142,6.0,11.0,51,0.00,,,0.00,32767.00,ALWS 1.0-beta,2013-04-27 13:01:00,
2013-04-27 07:06:00,35.4,19.5,30.30,SE,125,7.0,11.0,52,0.00,,,0.00,32767.00,ALWS 1.0-beta,2013-04-27 13:06:00,
2013-04-27 07:11:00,35.4,20.0,30.30,SE,125,10.0,11.0,53,0.00,,,0.00,32767.00,ALWS 1.0-beta,2013-04-27 13:11:00,
2013-04-27 07:16:00,35.7,19.8,30.30,SE,136,7.0,12.0,52,0.00,,,0.00,32767.00,ALWS 1.0-beta,2013-04-27 13:16:00,
2013-04-27 07:21:00,36.2,20.3,30.30,SE,128,5.0,11.0,52,0.00,,,0.00,32767.00,ALWS 1.0-beta,2013-04-27 13:21:00,
2013-04-27 07:26:00,36.6,20.2,30.31,SE,145,5.0,9.0,51,0.00,,,0.00,32767.00,ALWS 1.0-beta,2013-04-27 13:26:00,
2013-04-27 07:31:00,37.3,20.9,30.31,ESE,121,5.0,10.0,51,0.00,,,0.00,32767.00,ALWS 1.0-beta,2013-04-27 13:31:00,
2013-04-27 07:36:00,38.0,21.5,30.31,ESE,123,9.0,11.0,51,0.00,,,0.00,32767.00,ALWS 1.0-beta,2013-04-27 13:36:00,
2013-04-27 07:41:00,38.3,20.8,30.31,SE,128,4.0,9.0,49,0.00,,,0.00,32767.00,ALWS 1.0-beta,2013-04-27 13:41:00,
2013-04-27 07:48:00,39.3,21.3,30.30,SE,142,6.0,6.0,48,0.00,,,0.00,32767.00,ALWS 1.0-beta,2013-04-27 13:48:00,
2013-04-27 07:53:00,39.6,21.5,30.31,SE,132,5.0,12.0,48,0.00,,,0.00,32767.00,ALWS 1.0-beta,2013-04-27 13:53:00,
2013-04-27 07:58:00,40.0,21.9,30.31,SSE,148,5.0,12.0,48,0.00,,,0.00,32767.00,ALWS 1.0-beta,2013-04-27 13:58:00,
2013-04-27 08:03:00,39.6,21.0,30.31,South,170,5.0,9.0,47,0.00,,,0.00,32767.00,ALWS 1.0-beta,2013-04-27 14:03:00,
2013-04-27 08:08:00,39.6,21.5,30.30,South,171,0.0,5.0,48,0.00,,,0.00,32767.00,ALWS 1.0-beta,2013-04-27 14:08:00,
2013-04-27 08:13:00,40.3,21.2,30.30,SSE,161,6.0,7.0,46,0.00,,,0.00,32767.00,ALWS 1.0-beta,2013-04-27 14:13:00,
2013-04-27 08:18:00,40.4,21.3,30.30,South,171,4.0,7.0,46,0.00,,,0.00,32767.00,ALWS 1.0-beta,2013-04-27 14:18:00,
2013-04-27 08:23:00,40.3,21.7,30.30,South,172,4.0,6.0,47,0.00,,,0.00,32767.00,ALWS 1.0-beta,2013-04-27 14:23:00,
2013-04-27 08:28:00,41.0,22.3,30.30,South,176,5.0,6.0,47,0.00,,,0.00,32767.00,ALWS 1.0-beta,2013-04-27 14:28:00,
2013-04-27 08:33:00,41.4,22.2,30.30,South,178,1.0,6.0,46,0.00,,,0.00,32767.00,ALWS 1.0-beta,2013-04-27 14:33:00,
2013-04-27 08:38:00,42.0,21.1,30.29,South,177,4.0,5.0,43,0.00,,,0.00,32767.00,ALWS 1.0-beta,2013-04-27 14:38:00,
2013-04-27 08:43:00,42.5,21.0,30.29,South,177,0.0,4.0,42,0.00,,,0.00,32767.00,ALWS 1.0-beta,2013-04-27 14:43:00,
2013-04-27 08:48:00,43.2,21.1,30.29,South,178,0.0,4.0,41,0.00,,,0.00,32767.00,ALWS 1.0-beta,2013-04-27 14:48:00,
2013-04-27 08:53:00,43.8,21.1,30.29,South,178,0.0,1.0,40,0.00,,,0.00,32767.00,ALWS 1.0-beta,2013-04-27 14:53:00,
2013-04-27 08:58:00,44.2,20.2,30.29,South,177,0.0,1.0,38,0.00,,,0.00,32767.00,ALWS 1.0-beta,2013-04-27 14:58:00,
2013-04-27 09:03:00,45.0,22.1,30.29,South,177,0.0,1.0,40,0.00,,,0.00,32767.00,ALWS 1.0-beta,2013-04-27 15:03:00,
2013-04-27 09:08:00,46.0,23.0,30.29,South,178,0.0,1.0,40,0.00,,,0.00,32767.00,ALWS 1.0-beta,2013-04-27 15:08:00,
2013-04-27 09:13:00,46.7,21.8,30.28,South,178,0.0,1.0,37,0.00,,,0.00,32767.00,ALWS 1.0-beta,2013-04-27 15:13:00,
2013-04-27 09:18:00,47.3,22.4,30.28,South,178,0.0,1.0,37,0.00,,,0.00,32767.00,ALWS 1.0-beta,2013-04-27 15:18:00,
2013-04-27 09:23:00,47.8,23.4,30.29,South,177,0.0,1.0,38,0.00,,,0.00,32767.00,ALWS 1.0-beta,2013-04-27 15:23:00,
2013-04-27 09:28:00,49.1,23.3,30.28,South,178,0.0,0.0,36,0.00,,,0.00,32767.00,ALWS 1.0-beta,2013-04-27 15:28:00,
2013-04-27 09:33:00,49.6,23.8,30.28,South,176,0.0,1.0,36,0.00,,,0.00,32767.00,ALWS 1.0-beta,2013-04-27 15:33:00,
2013-04-27 09:38:00,50.1,22.1,30.28,South,178,0.0,1.0,33,0.00,,,0.00,32767.00,ALWS 1.0-beta,2013-04-27 15:38:00,
2013-04-27 09:43:00,50.6,24.0,30.28,South,177,0.0,1.0,35,0.00,,,0.00,32767.00,ALWS 1.0-beta,2013-04-27 15:43:00,
2013-04-27 09:48:00,52.1,23.9,30.28,South,178,0.0,1.0,33,0.00,,,0.00,32767.00,ALWS 1.0-beta,2013-04-27 15:48:00,
2013-04-27 09:53:00,52.8,23.8,30.28,South,178,1.0,1.0,32,0.00,,,0.00,32767.00,ALWS 1.0-beta,2013-04-27 15:53:00,
2013-04-27 09:58:00,53.0,22.4,30.28,South,178,0.0,2.0,30,0.00,,,0.00,32767.00,ALWS 1.0-beta,2013-04-27 15:58:00,
2013-04-27 10:03:00,53.6,21.3,30.28,South,178,0.0,1.0,28,0.00,,,0.00,32767.00,ALWS 1.0-beta,2013-04-27 16:03:00,
2013-04-27 10:08:00,53.7,23.0,30.27,South,177,0.0,0.0,30,0.00,,,0.00,32767.00,ALWS 1.0-beta,2013-04-27 16:08:00,
2013-04-27 10:13:00,54.3,21.9,30.27,South,177,3.0,4.0,28,0.00,,,0.00,32767.00,ALWS 1.0-beta,2013-04-27 16:13:00,
2013-04-27 10:18:00,54.6,23.0,30.28,South,178,2.0,4.0,29,0.00,,,0.00,32767.00,ALWS 1.0-beta,2013-04-27 16:18:00,
2013-04-27 10:23:00,55.0,24.2,30.28,South,177,0.0,1.0,30,0.00,,,0.00,32767.00,ALWS 1.0-beta,2013-04-27 16:23:00,
2013-04-27 10:28:00,56.7,22.2,30.27,South,178,1.0,3.0,26,0.00,,,0.00,32767.00,ALWS 1.0-beta,2013-04-27 16:28:00,
2013-04-27 10:33:00,57.6,22.1,30.27,South,178,0.0,3.0,25,0.00,,,0.00,32767.00,ALWS 1.0-beta,2013-04-27 16:33:00,
2013-04-27 10:38:00,59.0,23.2,30.27,South,177,0.0,1.0,25,0.00,,,0.00,32767.00,ALWS 1.0-beta,2013-04-27 16:38:00,
2013-04-27 10:43:00,58.2,22.6,30.27,SW,217,0.0,6.0,25,0.00,,,0.00,32767.00,ALWS 1.0-beta,2013-04-27 16:43:00,
2013-04-27 10:48:00,58.2,22.6,30.27,SW,217,0.0,1.0,25,0.00,,,0.00,32767.00,ALWS 1.0-beta,2013-04-27 16:48:00,
2013-04-27 10:53:00,58.3,23.6,30.26,WSW,249,6.0,7.0,26,0.00,,,0.00,32767.00,ALWS 1.0-beta,2013-04-27 16:53:00,
2013-04-27 10:58:00,57.2,22.6,30.27,WNW,288,0.0,6.0,26,0.00,,,0.00,32767.00,ALWS 1.0-beta,2013-04-27 16:58:00,
2013-04-27 11:03:00,57.5,24.7,30.26,WNW,290,0.0,1.0,28,0.00,,,0.00,32767.00,ALWS 1.0-beta,2013-04-27 17:03:00,
2013-04-27 11:08:00,58.4,21.8,30.27,West,277,0.0,6.0,24,0.00,,,0.00,32767.00,ALWS 1.0-beta,2013-04-27 17:08:00,
2013-04-27 11:13:00,58.4,22.7,30.26,NW,322,0.0,7.0,25,0.00,,,0.00,32767.00,ALWS 1.0-beta,2013-04-27 17:13:00,
2013-04-27 11:18:00,57.8,24.1,30.26,NW,318,1.0,10.0,27,0.00,,,0.00,32767.00,ALWS 1.0-beta,2013-04-27 17:18:00,
2013-04-27 11:23:00,58.3,23.6,30.26,SW,226,0.0,6.0,26,0.00,,,0.00,32767.00,ALWS 1.0-beta,2013-04-27 17:23:00,
2013-04-27 11:28:00,59.9,25.0,30.26,South,179,0.0,3.0,26,0.00,,,0.00,32767.00,ALWS 1.0-beta,2013-04-27 17:28:00,
2013-04-27 11:33:00,60.8,23.8,30.26,South,179,0.0,1.0,24,0.00,,,0.00,32767.00,ALWS 1.0-beta,2013-04-27 17:33:00,
2013-04-27 11:38:00,60.3,24.4,30.25,NNW,327,1.0,12.0,25,0.00,,,0.00,32767.00,ALWS 1.0-beta,2013-04-27 17:38:00,
2013-04-27 11:43:00,59.2,23.4,30.25,West,276,4.0,10.0,25,0.00,,,0.00,32767.00,ALWS 1.0-beta,2013-04-27 17:43:00,
2013-04-27 11:48:00,59.0,22.3,30.25,SW,236,3.0,11.0,24,0.00,,,0.00,32767.00,ALWS 1.0-beta,2013-04-27 17:48:00,
2013-04-27 11:53:00,59.9,25.0,30.25,SW,215,0.0,6.0,26,0.00,,,0.00,32767.00,ALWS 1.0-beta,2013-04-27 17:53:00,
2013-04-27 11:58:00,60.5,24.5,30.25,NNW,342,11.0,12.0,25,0.00,,,0.00,32767.00,ALWS 1.0-beta,2013-04-27 17:58:00,
2013-04-27 12:03:00,60.0,25.0,30.25,NNW,331,2.0,15.0,26,0.00,,,0.00,32767.00,ALWS 1.0-beta,2013-04-27 18:03:00,
2013-04-27 12:08:00,59.7,24.8,30.25,WNW,299,11.0,17.0,26,0.00,,,0.00,32767.00,ALWS 1.0-beta,2013-04-27 18:08:00,
2013-04-27 12:13:00,59.8,26.6,30.24,WNW,288,10.0,13.0,28,0.00,,,0.00,32767.00,ALWS 1.0-beta,2013-04-27 18:13:00,
2013-04-27 12:18:00,60.1,24.2,30.24,NW,317,12.0,17.0,25,0.00,,,0.00,32767.00,ALWS 1.0-beta,2013-04-27 18:18:00,
2013-04-27 12:23:00,60.0,27.7,30.24,WNW,293,11.0,16.0,29,0.00,,,0.00,32767.00,ALWS 1.0-beta,2013-04-27 18:23:00,
2013-04-27 12:28:00,60.3,26.2,30.24,West,273,6.0,17.0,27,0.00,,,0.00,32767.00,ALWS 1.0-beta,2013-04-27 18:28:00,
2013-04-27 12:33:00,60.5,26.4,30.24,WNW,287,11.0,14.0,27,0.00,,,0.00,32767.00,ALWS 1.0-beta,2013-04-27 18:33:00,
2013-04-27 12:38:00,60.4,24.4,30.24,West,273,11.0,18.0,25,0.00,,,0.00,32767.00,ALWS 1.0-beta,2013-04-27 18:38:00,
2013-04-27 12:43:00,60.3,27.1,30.24,WSW,248,4.0,14.0,28,0.00,,,0.00,32767.00,ALWS 1.0-beta,2013-04-27 18:43:00,
2013-04-27 12:48:00,61.1,26.0,30.23,WNW,302,10.0,16.0,26,0.00,,,0.00,32767.00,ALWS 1.0-beta,2013-04-27 18:48:00,
2013-04-27 12:53:00,61.1,26.9,30.23,WNW,296,17.0,18.0,27,0.00,,,0.00,32767.00,ALWS 1.0-beta,2013-04-27 18:53:00,
2013-04-27 12:58:00,60.7,24.7,30.23,NW,317,0.0,9.0,25,0.00,,,0.00,32767.00,ALWS 1.0-beta,2013-04-27 18:58:00,
2013-04-27 13:03:00,61.2,25.1,30.23,West,268,6.0,17.0,25,0.00,,,0.00,32767.00,ALWS 1.0-beta,2013-04-27 19:03:00,
2013-04-27 13:08:00,61.1,26.0,30.23,WNW,283,10.0,18.0,26,0.00,,,0.00,32767.00,ALWS 1.0-beta,2013-04-27 19:08:00,
2013-04-27 13:13:00,61.2,27.0,30.22,WNW,297,6.0,10.0,27,0.00,,,0.00,32767.00,ALWS 1.0-beta,2013-04-27 19:13:00,
2013-04-27 13:18:00,62.0,27.7,30.22,NW,314,11.0,17.0,27,0.00,,,0.00,32767.00,ALWS 1.0-beta,2013-04-27 19:18:00,
2013-04-27 13:23:00,61.8,26.6,30.22,WNW,286,9.0,15.0,26,0.00,,,0.00,32767.00,ALWS 1.0-beta,2013-04-27 19:23:00,
2013-04-27 13:28:00,61.6,28.2,30.21,NW,315,4.0,19.0,28,0.00,,,0.00,32767.00,ALWS 1.0-beta,2013-04-27 19:28:00,
2013-04-27 13:33:00,61.6,23.5,30.21,NNW,334,11.0,21.0,23,0.00,,,0.00,32767.00,ALWS 1.0-beta,2013-04-27 19:33:00,
2013-04-27 13:38:00,61.9,28.5,30.21,NW,313,18.0,21.0,28,0.00,,,0.00,32767.00,ALWS 1.0-beta,2013-04-27 19:38:00,
2013-04-27 13:43:00,61.7,26.5,30.21,WNW,303,3.0,23.0,26,0.00,,,0.00,32767.00,ALWS 1.0-beta,2013-04-27 19:43:00,
2013-04-27 13:48:00,61.4,25.3,30.21,WNW,292,9.0,21.0,25,0.00,,,0.00,32767.00,ALWS 1.0-beta,2013-04-27 19:48:00,
2013-04-27 13:53:00,61.6,27.3,30.21,WNW,295,12.0,18.0,27,0.00,,,0.00,32767.00,ALWS 1.0-beta,2013-04-27 19:53:00,
2013-04-27 13:58:00,62.5,27.2,30.20,WNW,302,6.0,14.0,26,0.00,,,0.00,32767.00,ALWS 1.0-beta,2013-04-27 19:58:00,
2013-04-27 14:03:00,63.2,30.4,30.20,WNW,288,16.0,17.0,29,0.00,,,0.00,32767.00,ALWS 1.0-beta,2013-04-27 20:03:00,
2013-04-27 14:08:00,62.7,26.4,30.20,WNW,286,17.0,17.0,25,0.00,,,0.00,32767.00,ALWS 1.0-beta,2013-04-27 20:08:00,
2013-04-27 14:13:00,62.3,26.1,30.20,WNW,286,12.0,14.0,25,0.00,,,0.00,32767.00,ALWS 1.0-beta,2013-04-27 20:13:00,
2013-04-27 14:18:00,62.8,28.4,30.20,West,277,17.0,21.0,27,0.00,,,0.00,32767.00,ALWS 1.0-beta,2013-04-27 20:18:00,
2013-04-27 14:23:00,62.5,29.0,30.20,West,277,17.0,30.0,28,0.00,,,0.00,32767.00,ALWS 1.0-beta,2013-04-27 20:23:00,
2013-04-27 14:28:00,62.2,27.8,30.20,WNW,287,15.0,25.0,27,0.00,,,0.00,32767.00,ALWS 1.0-beta,2013-04-27 20:28:00,
2013-04-27 14:33:00,62.4,28.9,30.20,WNW,284,20.0,20.0,28,0.00,,,0.00,32767.00,ALWS 1.0-beta,2013-04-27 20:33:00,
2013-04-27 14:38:00,62.0,25.8,30.20,WNW,294,13.0,23.0,25,0.00,,,0.00,32767.00,ALWS 1.0-beta,2013-04-27 20:38:00,
2013-04-27 14:43:00,61.9,25.7,30.20,West,272,6.0,21.0,25,0.00,,,0.00,32767.00,ALWS 1.0-beta,2013-04-27 20:43:00,
2013-04-27 14:48:00,62.3,26.1,30.19,WNW,298,10.0,24.0,25,0.00,,,0.00,32767.00,ALWS 1.0-beta,2013-04-27 20:48:00,
2013-04-27 14:53:00,62.7,27.4,30.19,NW,313,14.0,24.0,26,0.00,,,0.00,32767.00,ALWS 1.0-beta,2013-04-27 20:53:00,
2013-04-27 14:58:00,62.6,26.3,30.19,WNW,291,18.0,27.0,25,0.00,,,0.00,32767.00,ALWS 1.0-beta,2013-04-27 20:58:00,
2013-04-27 15:03:00,62.4,27.1,30.20,WNW,298,19.0,23.0,26,0.00,,,0.00,32767.00,ALWS 1.0-beta,2013-04-27 21:03:00,
2013-04-27 15:08:00,62.5,27.2,30.19,West,263,13.0,19.0,26,0.00,,,0.00,32767.00,ALWS 1.0-beta,2013-04-27 21:08:00,
2013-04-27 15:13:00,62.7,29.1,30.19,WNW,300,19.0,25.0,28,0.00,,,0.00,32767.00,ALWS 1.0-beta,2013-04-27 21:13:00,
2013-04-27 15:18:00,62.3,26.1,30.19,WNW,290,15.0,26.0,25,0.00,,,0.00,32767.00,ALWS 1.0-beta,2013-04-27 21:18:00,
2013-04-27 15:23:00,62.4,28.9,30.19,WNW,292,18.0,19.0,28,0.00,,,0.00,32767.00,ALWS 1.0-beta,2013-04-27 21:23:00,
2013-04-27 15:28:00,63.1,27.7,30.18,WNW,288,15.0,22.0,26,0.00,,,0.00,32767.00,ALWS 1.0-beta,2013-04-27 21:28:00,
2013-04-27 15:33:00,63.0,25.7,30.18,West,276,9.0,27.0,24,0.00,,,0.00,32767.00,ALWS 1.0-beta,2013-04-27 21:33:00,
2013-04-27 15:38:00,62.6,27.3,30.18,West,261,12.0,19.0,26,0.00,,,0.00,32767.00,ALWS 1.0-beta,2013-04-27 21:38:00,
2013-04-27 15:43:00,62.8,27.4,30.18,WNW,291,13.0,22.0,26,0.00,,,0.00,32767.00,ALWS 1.0-beta,2013-04-27 21:43:00,
2013-04-27 15:48:00,62.5,27.2,30.18,West,273,16.0,22.0,26,0.00,,,0.00,32767.00,ALWS 1.0-beta,2013-04-27 21:48:00,
2013-04-27 15:53:00,62.9,28.4,30.18,NW,310,15.0,18.0,27,0.00,,,0.00,32767.00,ALWS 1.0-beta,2013-04-27 21:53:00,
2013-04-27 15:58:00,63.0,26.6,30.18,West,273,9.0,23.0,25,0.00,,,0.00,32767.00,ALWS 1.0-beta,2013-04-27 21:58:00,
2013-04-27 16:03:00,62.7,26.4,30.18,WNW,302,15.0,19.0,25,0.00,,,0.00,32767.00,ALWS 1.0-beta,2013-04-27 22:03:00,
2013-04-27 16:08:00,63.2,27.8,30.17,WNW,296,16.0,22.0,26,0.00,,,0.00,32767.00,ALWS 1.0-beta,2013-04-27 22:08:00,
2013-04-27 16:13:00,62.7,25.4,30.17,NW,308,13.0,25.0,24,0.00,,,0.00,32767.00,ALWS 1.0-beta,2013-04-27 22:13:00,
2013-04-27 16:18:00,62.5,25.2,30.17,West,267,8.0,18.0,24,0.00,,,0.00,32767.00,ALWS 1.0-beta,2013-04-27 22:18:00,
2013-04-27 16:23:00,62.8,26.5,30.17,West,263,10.0,17.0,25,0.00,,,0.00,32767.00,ALWS 1.0-beta,2013-04-27 22:23:00,
2013-04-27 16:28:00,62.9,24.6,30.16,West,269,9.0,17.0,23,0.00,,,0.00,32767.00,ALWS 1.0-beta,2013-04-27 22:28:00,
2013-04-27 16:33:00,63.4,26.0,30.16,WNW,294,17.0,19.0,24,0.00,,,0.00,32767.00,ALWS 1.0-beta,2013-04-27 22:33:00,
2013-04-27 16:38:00,62.7,26.4,30.16,WNW,289,16.0,17.0,25,0.00,,,0.00,32767.00,ALWS 1.0-beta,2013-04-27 22:38:00,
2013-04-27 16:43:00,62.9,23.5,30.16,West,279,11.0,17.0,22,0.00,,,0.00,32767.00,ALWS 1.0-beta,2013-04-27 22:43:00,
2013-04-27 16:48:00,62.9,24.6,30.16,WNW,298,13.0,15.0,23,0.00,,,0.00,32767.00,ALWS 1.0-beta,2013-04-27 22:48:00,
2013-04-27 16:53:00,62.8,24.5,30.15,WNW,303,12.0,14.0,23,0.00,,,0.00,32767.00,ALWS 1.0-beta,2013-04-27 22:53:00,
2013-04-27 16:58:00,63.1,24.7,30.15,WNW,298,16.0,21.0,23,0.00,,,0.00,32767.00,ALWS 1.0-beta,2013-04-27 22:58:00,
2013-04-27 17:03:00,62.8,25.5,30.15,WNW,287,18.0,19.0,24,0.00,,,0.00,32767.00,ALWS 1.0-beta,2013-04-27 23:03:00,
2013-04-27 17:08:00,62.7,24.4,30.15,West,271,12.0,18.0,23,0.00,,,0.00,32767.00,ALWS 1.0-beta,2013-04-27 23:08:00,
2013-04-27 17:13:00,62.9,24.6,30.15,WNW,290,14.0,18.0,23,0.00,,,0.00,32767.00,ALWS 1.0-beta,2013-04-27 23:13:00,
2013-04-27 17:18:00,62.7,24.4,30.15,WNW,292,15.0,18.0,23,0.00,,,0.00,32767.00,ALWS 1.0-beta,2013-04-27 23:18:00,
2013-04-27 17:23:00,62.5,25.2,30.15,WNW,288,12.0,16.0,24,0.00,,,0.00,32767.00,ALWS 1.0-beta,2013-04-27 23:23:00,
2013-04-27 17:28:00,62.6,25.3,30.15,NW,306,11.0,15.0,24,0.00,,,0.00,32767.00,ALWS 1.0-beta,2013-04-27 23:28:00,
2013-04-27 17:33:00,62.5,23.2,30.15,WNW,300,11.0,18.0,22,0.00,,,0.00,32767.00,ALWS 1.0-beta,2013-04-27 23:33:00,
2013-04-27 17:38:00,62.6,23.2,30.15,WNW,286,13.0,18.0,22,0.00,,,0.00,32767.00,ALWS 1.0-beta,2013-04-27 23:38:00,
2013-04-27 17:43:00,62.4,26.1,30.15,WNW,294,11.0,20.0,25,0.00,,,0.00,32767.00,ALWS 1.0-beta,2013-04-27 23:43:00,
2013-04-27 17:48:00,62.3,24.1,30.15,WNW,283,12.0,19.0,23,0.00,,,0.00,32767.00,ALWS 1.0-beta,2013-04-27 23:48:00,
2013-04-27 17:53:00,62.3,24.1,30.15,West,276,16.0,21.0,23,0.00,,,0.00,32767.00,ALWS 1.0-beta,2013-04-27 23:53:00,
2013-04-27 17:58:00,62.0,25.8,30.15,West,275,14.0,19.0,25,0.00,,,0.00,32767.00,ALWS 1.0-beta,2013-04-27 23:58:00,
2013-04-27 18:03:00,62.0,24.8,30.15,West,278,15.0,19.0,24,0.00,,,0.00,32767.00,ALWS 1.0-beta,2013-04-28 00:03:00,
2013-04-27 18:08:00,61.7,24.6,30.15,West,281,15.0,18.0,24,0.00,,,0.00,32767.00,ALWS 1.0-beta,2013-04-28 00:08:00,
2013-04-27 18:13:00,61.6,24.5,30.14,West,273,13.0,20.0,24,0.00,,,0.00,32767.00,ALWS 1.0-beta,2013-04-28 00:13:00,
2013-04-27 18:18:00,61.3,25.2,30.15,NW,307,15.0,22.0,25,0.00,,,0.00,32767.00,ALWS 1.0-beta,2013-04-28 00:18:00,
2013-04-27 18:23:00,60.9,22.9,30.15,WNW,294,16.0,19.0,23,0.00,,,0.00,32767.00,ALWS 1.0-beta,2013-04-28 00:23:00,
2013-04-27 18:28:00,60.9,23.9,30.15,WNW,292,15.0,22.0,24,0.00,,,0.00,32767.00,ALWS 1.0-beta,2013-04-28 00:28:00,
2013-04-27 18:33:00,61.2,24.1,30.14,WNW,292,15.0,20.0,24,0.00,,,0.00,32767.00,ALWS 1.0-beta,2013-04-28 00:33:00,
2013-04-27 18:38:00,61.1,23.0,30.14,WNW,302,18.0,20.0,23,0.00,,,0.00,32767.00,ALWS 1.0-beta,2013-04-28 00:38:00,
2013-04-27 18:43:00,61.1,23.0,30.14,NW,309,13.0,17.0,23,0.00,,,0.00,32767.00,ALWS 1.0-beta,2013-04-28 00:43:00,
2013-04-27 18:48:00,61.3,23.2,30.14,WNW,287,10.0,15.0,23,0.00,,,0.00,32767.00,ALWS 1.0-beta,2013-04-28 00:48:00,
2013-04-27 18:53:00,61.3,24.2,30.14,NW,311,11.0,15.0,24,0.00,,,0.00,32767.00,ALWS 1.0-beta,2013-04-28 00:53:00,
2013-04-27 18:58:00,61.3,23.2,30.14,WNW,296,10.0,16.0,23,0.00,,,0.00,32767.00,ALWS 1.0-beta,2013-04-28 00:58:00,
2013-04-27 19:03:00,61.2,24.1,30.14,West,276,9.0,15.0,24,0.00,,,0.00,32767.00,ALWS 1.0-beta,2013-04-28 01:03:00,
2013-04-27 19:08:00,61.1,24.1,30.14,WNW,287,9.0,12.0,24,0.00,,,0.00,32767.00,ALWS 1.0-beta,2013-04-28 01:08:00,
2013-04-27 19:13:00,60.9,23.9,30.14,West,275,7.0,12.0,24,0.00,,,0.00,32767.00,ALWS 1.0-beta,2013-04-28 01:13:00,
2013-04-27 19:18:00,60.8,23.8,30.14,West,280,6.0,10.0,24,0.00,,,0.00,32767.00,ALWS 1.0-beta,2013-04-28 01:18:00,
2013-04-27 19:23:00,60.4,24.4,30.13,WNW,298,8.0,10.0,25,0.00,,,0.00,32767.00,ALWS 1.0-beta,2013-04-28 01:23:00,
2013-04-27 19:28:00,60.1,24.2,30.13,WNW,283,5.0,9.0,25,0.00,,,0.00,32767.00,ALWS 1.0-beta,2013-04-28 01:28:00,
2013-04-27 19:33:00,60.1,25.1,30.13,West,272,4.0,9.0,26,0.00,,,0.00,32767.00,ALWS 1.0-beta,2013-04-28 01:33:00,
2013-04-27 19:38:00,59.8,24.9,30.13,West,274,3.0,7.0,26,0.00,,,0.00,32767.00,ALWS 1.0-beta,2013-04-28 01:38:00,
2013-04-27 19:43:00,59.5,25.5,30.13,West,273,4.0,7.0,27,0.00,,,0.00,32767.00,ALWS 1.0-beta,2013-04-28 01:43:00,
2013-04-27 19:48:00,59.0,25.1,30.13,West,274,4.0,5.0,27,0.00,,,0.00,32767.00,ALWS 1.0-beta,2013-04-28 01:48:00,
2013-04-27 19:53:00,58.4,25.5,30.13,West,277,7.0,7.0,28,0.00,,,0.00,32767.00,ALWS 1.0-beta,2013-04-28 01:53:00,
2013-04-27 19:58:00,57.7,24.8,30.12,West,278,5.0,6.0,28,0.00,,,0.00,32767.00,ALWS 1.0-beta,2013-04-28 01:58:00,
2013-04-27 20:03:00,57.4,24.6,30.13,West,278,4.0,7.0,28,0.00,,,0.00,32767.00,ALWS 1.0-beta,2013-04-28 02:03:00,
2013-04-27 20:08:00,57.4,23.7,30.12,West,278,3.0,5.0,27,0.00,,,0.00,32767.00,ALWS 1.0-beta,2013-04-28 02:08:00,
2013-04-27 20:13:00,57.3,24.5,30.12,West,278,0.0,3.0,28,0.00,,,0.00,32767.00,ALWS 1.0-beta,2013-04-28 02:13:00,
2013-04-27 20:18:00,57.1,26.0,30.12,West,277,2.0,3.0,30,0.00,,,0.00,32767.00,ALWS 1.0-beta,2013-04-28 02:18:00,
2013-04-27 20:23:00,55.9,25.7,30.12,West,278,0.0,1.0,31,0.00,,,0.00,32767.00,ALWS 1.0-beta,2013-04-28 02:23:00,
2013-04-27 20:28:00,55.2,25.1,30.12,West,278,0.0,0.0,31,0.00,,,0.00,32767.00,ALWS 1.0-beta,2013-04-28 02:28:00,
2013-04-27 20:33:00,54.1,24.9,30.12,WNW,296,2.0,5.0,32,0.00,,,0.00,32767.00,ALWS 1.0-beta,2013-04-28 02:33:00,
2013-04-27 20:38:00,53.2,24.9,30.12,NW,307,0.0,4.0,33,0.00,,,0.00,32767.00,ALWS 1.0-beta,2013-04-28 02:38:00,
2013-04-27 20:43:00,52.8,25.2,30.12,North,5,1.0,3.0,34,0.00,,,0.00,32767.00,ALWS 1.0-beta,2013-04-28 02:43:00,
2013-04-27 20:48:00,52.3,24.8,30.12,East,80,0.0,4.0,34,0.00,,,0.00,32767.00,ALWS 1.0-beta,2013-04-28 02:48:00,
2013-04-27 20:53:00,51.8,24.3,30.11,ENE,75,1.0,4.0,34,0.00,,,0.00,32767.00,ALWS 1.0-beta,2013-04-28 02:53:00,
2013-04-27 20:58:00,51.5,24.8,30.12,ENE,78,1.0,4.0,35,0.00,,,0.00,32767.00,ALWS 1.0-beta,2013-04-28 02:58:00,
2013-04-27 21:03:00,51.3,25.3,30.12,ENE,78,0.0,4.0,36,0.00,,,0.00,32767.00,ALWS 1.0-beta,2013-04-28 03:03:00,
2013-04-27 21:08:00,51.1,24.4,30.12,ENE,78,0.0,1.0,35,0.00,,,0.00,32767.00,ALWS 1.0-beta,2013-04-28 03:08:00,
2013-04-27 21:13:00,50.8,24.8,30.12,ENE,78,1.0,2.0,36,0.00,,,0.00,32767.00,ALWS 1.0-beta,2013-04-28 03:13:00,
2013-04-27 21:18:00,50.3,24.4,30.12,East,86,1.0,6.0,36,0.00,,,0.00,32767.00,ALWS 1.0-beta,2013-04-28 03:18:00,
2013-04-27 21:23:00,49.9,24.7,30.12,East,92,4.0,4.0,37,0.00,,,0.00,32767.00,ALWS 1.0-beta,2013-04-28 03:23:00,
2013-04-27 21:28:00,49.8,24.6,30.12,East,96,4.0,6.0,37,0.00,,,0.00,32767.00,ALWS 1.0-beta,2013-04-28 03:28:00,
2013-04-27 21:33:00,49.9,24.0,30.12,East,90,5.0,7.0,36,0.00,,,0.00,32767.00,ALWS 1.0-beta,2013-04-28 03:33:00,
2013-04-27 21:38:00,50.0,24.1,30.12,East,87,6.0,9.0,36,0.00,,,0.00,32767.00,ALWS 1.0-beta,2013-04-28 03:38:00,
2013-04-27 21:43:00,50.1,24.2,30.12,East,82,9.0,11.0,36,0.00,,,0.00,32767.00,ALWS 1.0-beta,2013-04-28 03:43:00,
2013-04-27 21:48:00,50.0,24.1,30.12,East,82,11.0,12.0,36,0.00,,,0.00,32767.00,ALWS 1.0-beta,2013-04-28 03:48:00,
2013-04-27 21:54:00,50.1,24.2,30.12,ESE,116,9.0,12.0,36,0.00,,,0.00,32767.00,ALWS 1.0-beta,2013-04-28 03:54:00,
2013-04-27 21:59:00,49.9,24.0,30.12,East,80,13.0,13.0,36,0.00,,,0.00,32767.00,ALWS 1.0-beta,2013-04-28 03:59:00,
2013-04-27 22:01:00,50.0,24.1,30.12,East,82,11.0,12.0,36,0.00,,,0.00,32767.00,ALWS 1.0-beta,2013-04-28 04:01:00,
2013-04-27 22:06:00,49.9,24.0,30.12,East,91,14.0,14.0,36,0.00,,,0.00,32767.00,ALWS 1.0-beta,2013-04-28 04:06:00,
2013-04-27 22:11:00,49.8,23.9,30.12,East,86,12.0,14.0,36,0.00,,,0.00,32767.00,ALWS 1.0-beta,2013-04-28 04:11:00,
2013-04-27 22:16:00,49.6,23.8,30.12,East,86,11.0,12.0,36,0.00,,,0.00,32767.00,ALWS 1.0-beta,2013-04-28 04:16:00,
2013-04-27 22:21:00,49.7,23.9,30.12,East,100,7.0,12.0,36,0.00,,,0.00,32767.00,ALWS 1.0-beta,2013-04-28 04:21:00,
2013-04-27 22:26:00,49.4,24.2,30.13,East,94,6.0,9.0,37,0.00,,,0.00,32767.00,ALWS 1.0-beta,2013-04-28 04:26:00,
2013-04-27 22:31:00,48.6,24.2,30.12,ESE,102,11.0,13.0,38,0.00,,,0.00,32767.00,ALWS 1.0-beta,2013-04-28 04:31:00,
2013-04-27 22:36:00,47.9,24.1,30.12,ESE,107,15.0,15.0,39,0.00,,,0.00,32767.00,ALWS 1.0-beta,2013-04-28 04:36:00,
2013-04-27 22:41:00,47.6,24.5,30.12,East,83,11.0,14.0,40,0.00,,,0.00,32767.00,ALWS 1.0-beta,2013-04-28 04:41:00,
2013-04-27 22:46:00,47.4,24.3,30.12,East,95,11.0,15.0,40,0.00,,,0.00,32767.00,ALWS 1.0-beta,2013-04-28 04:46:00,
2013-04-27 22:51:00,47.1,24.6,30.12,East,98,10.0,11.0,41,0.00,,,0.00,32767.00,ALWS 1.0-beta,2013-04-28 04:51:00,
2013-04-27 22:56:00,46.7,24.3,30.12,ESE,109,9.0,10.0,41,0.00,,,0.00,32767.00,ALWS 1.0-beta,2013-04-28 04:56:00,
2013-04-27 23:01:00,46.6,24.2,30.12,ESE,109,9.0,10.0,41,0.00,,,0.00,32767.00,ALWS 1.0-beta,2013-04-28 05:01:00,
2013-04-27 23:06:00,47.2,24.1,30.12,ESE,105,7.0,13.0,40,0.00,,,0.00,32767.00,ALWS 1.0-beta,2013-04-28 05:06:00,
2013-04-27 23:11:00,47.5,24.4,30.11,East,85,8.0,14.0,40,0.00,,,0.00,32767.00,ALWS 1.0-beta,2013-04-28 05:11:00,
2013-04-27 23:16:00,47.1,24.6,30.12,East,96,12.0,15.0,41,0.00,,,0.00,32767.00,ALWS 1.0-beta,2013-04-28 05:16:00,
2013-04-27 23:21:00,46.2,25.0,30.12,East,99,12.0,12.0,43,0.00,,,0.00,32767.00,ALWS 1.0-beta,2013-04-28 05:21:00,
2013-04-27 23:26:00,45.6,24.4,30.12,East,99,12.0,12.0,43,0.00,,,0.00,32767.00,ALWS 1.0-beta,2013-04-28 05:26:00,
2013-04-27 23:31:00,45.6,25.0,30.11,ESE,107,12.0,14.0,44,0.00,,,0.00,32767.00,ALWS 1.0-beta,2013-04-28 05:31:00,
2013-04-27 23:36:00,45.4,24.8,30.11,ESE,107,13.0,14.0,44,0.00,,,0.00,32767.00,ALWS 1.0-beta,2013-04-28 05:36:00,
2013-04-27 23:41:00,45.1,24.5,30.11,ESE,120,7.0,13.0,44,0.00,,,0.00,32767.00,ALWS 1.0-beta,2013-04-28 05:41:00,
2013-04-27 23:46:00,44.9,24.9,30.11,ESE,109,7.0,10.0,45,0.00,,,0.00,32767.00,ALWS 1.0-beta,2013-04-28 05:46:00,
2013-04-27 23:51:00,44.9,24.9,30.11,ESE,103,13.0,14.0,45,0.00,,,0.00,32767.00,ALWS 1.0-beta,2013-04-28 05:51:00,
2013-04-27 23:56:00,45.0,25.0,30.11,ESE,102,6.0,9.0,45,0.00,,,0.00,32767.00,ALWS 1.0-beta,2013-04-28 05:56:00,